Location: Domachevo
(51.7500°N, 23.6000°E)
Time: 00:45:51
(UTC+03:00)

ISS - Visible Passes

Search period start: 29 March 2017 00:00
Search period end: 08 April 2017 00:00
Orbit: 399 x 409 km, 51.6° (Epoch: 29 March)

Date Brightness Start Highest point End Pass type
(mag) Time Alt. Az. Time Alt. Az. Time Alt. Az.
29 Mar -2.6 21:08:51 10° SSW 21:11:36 25° SSE 21:12:23 22° ESE visible
29 Mar -1.1 22:44:29 10° WSW 22:45:05 14° WSW 22:45:05 14° WSW visible
30 Mar -3.8 21:52:12 10° WSW 21:55:19 57° S 21:55:19 57° S visible
31 Mar -3.3 21:00:00 10° SW 21:03:05 41° SSE 21:05:23 16° E visible
31 Mar -2.3 22:36:08 10° W 22:38:03 32° W 22:38:03 32° W visible
01 Apr -4.0 21:43:45 10° WSW 21:47:01 78° S 21:47:57 43° E visible
01 Apr -0.8 23:20:13 10° W 23:20:37 13° W 23:20:37 13° W visible
02 Apr -3.8 20:51:24 10° WSW 20:54:38 63° SSE 20:57:45 11° E visible
02 Apr -3.2 22:27:47 10° W 22:30:25 54° W 22:30:25 54° W visible
03 Apr -3.9 21:35:21 10° W 21:38:38 90° S 21:40:07 30° E visible
03 Apr -1.2 23:11:50 10° W 23:12:46 18° W 23:12:46 18° W visible
04 Apr -3.9 20:42:55 10° WSW 20:46:11 82° S 20:49:28 10° E visible
04 Apr -3.8 22:19:22 10° W 22:22:25 72° WSW 22:22:25 72° WSW visible
05 Apr -3.9 21:26:55 10° W 21:30:12 88° S 21:32:02 24° E visible
05 Apr -1.5 23:03:25 10° W 23:04:40 20° W 23:04:40 20° W visible
06 Apr -3.7 22:10:54 10° W 22:14:08 57° SSW 22:14:15 56° S visible
07 Apr -3.8 21:18:25 10° W 21:21:41 73° SSW 21:23:50 20° ESE visible
07 Apr -1.6 22:55:06 10° W 22:56:28 19° WSW 22:56:28 19° WSW visible
